Location: Ku?niki
(51.4449°N, 17.8974°E)
Time: 17:00:36
(UTC+00:00)

XW-2A - Pass Details

Date: 04 July 2022
Orbit: 396 x 406 km, 97.2° (Epoch: 10 August)

Event Time Altitude Azimuth Distance (km) Brightness Sun altitude
Exits shadow 20:09:09 - 189° (S) 2,090 ? -7.5°
Reaches altitude 10° 20:10:46 10° 199° (SSW) 1,442 ? -7.7°
Maximum altitude 20:13:32 30° 263° (W) 739 ? -7.9°
Drops below altitude 10° 20:16:20 10° 328° (NNW) 1,454 ? -8.2°
Sets 20:18:28 0° 339° (NNW) 2,319 ? -8.4°
